When you browse on this site, cookies collect data to enhance your experience and personalize the content and advertising you see.
Visit our Privacy Policy to learn more. By continuing to use the site, you agree to this use of cookies and data.
  • In Hungary
  • List of Countries
  • For 7 days
  • Water Temperature
  • Weather Map
  • News
  • Weather Widgets
  • user-avatar
    Login

    Hourly Weather Nekrasovo

    Today, 14 October, Monday

    Time Temperature Precipitation Wind Pressure Humidity
    00:00 +13°C° 0.3 mm 6 mps 742 mmHg 82%
    01:00 +12°C° 0.1 mm 5 mps 743 mmHg 82%
    02:00 +12°C° 0.1 mm 4 mps 743 mmHg 81%
    03:00 +11°C° 0 mm 4 mps 743 mmHg 84%
    04:00 +11°C° 0 mm 4 mps 744 mmHg 87%
    05:00 +11°C° 0 mm 4 mps 744 mmHg 89%
    06:00 +10°C° 0 mm 3 mps 744 mmHg 92%
    07:00 +11°C° 0 mm 4 mps 744 mmHg 87%
    08:00 +12°C° 0 mm 5 mps 745 mmHg 82%
    09:00 +13°C° 0 mm 6 mps 745 mmHg 77%
    10:00 +13°C° 0 mm 6 mps 746 mmHg 71%
    11:00 +14°C° 0 mm 6 mps 746 mmHg 65%
    12:00 +15°C° 0 mm 6 mps 746 mmHg 59%
    13:00 +15°C° 0 mm 5 mps 746 mmHg 58%
    14:00 +15°C° 0 mm 5 mps 746 mmHg 58%
    15:00 +15°C° 0 mm 5 mps 746 mmHg 58%
    16:00 +15°C° 0 mm 4 mps 746 mmHg 66%
    17:00 +14°C° 0 mm 4 mps 746 mmHg 74%
    18:00 +13°C° 0 mm 3 mps 746 mmHg 82%
    19:00 +13°C° 0 mm 3 mps 746 mmHg 85%
    20:00 +12°C° 0 mm 3 mps 746 mmHg 89%
    21:00 +12°C° 0 mm 3 mps 745 mmHg 93%
    22:00 +12°C° 0 mm 4 mps 745 mmHg 92%
    23:00 +12°C° 0 mm 4 mps 745 mmHg 91%

    Tomorrow, 15 October, Tuesday

    Time Temperature Precipitation Wind Pressure Humidity
    00:00 +12°C° 0 mm 4 mps 744 mmHg 91%
    01:00 +13°C° 0 mm 5 mps 744 mmHg 87%
    02:00 +13°C° 0 mm 6 mps 744 mmHg 84%
    03:00 +13°C° 0 mm 6 mps 743 mmHg 81%
    04:00 +12°C° 0 mm 7 mps 743 mmHg 79%
    05:00 +12°C° 0 mm 7 mps 743 mmHg 77%
    06:00 +12°C° 0 mm 7 mps 742 mmHg 75%
    07:00 +13°C° 0 mm 8 mps 742 mmHg 71%
    08:00 +15°C° 0 mm 8 mps 742 mmHg 66%
    09:00 +15°C° 0 mm 9 mps 742 mmHg 61%
    10:00 +17°C° 0 mm 8 mps 742 mmHg 57%
    11:00 +18°C° 0 mm 8 mps 742 mmHg 53%
    12:00 +20°C° 0 mm 8 mps 742 mmHg 49%
    13:00 +20°C° 0 mm 8 mps 742 mmHg 50%
    14:00 +20°C° 0 mm 8 mps 742 mmHg 52%
    15:00 +20°C° 0 mm 7 mps 742 mmHg 53%
    16:00 +19°C° 0 mm 6 mps 742 mmHg 60%
    17:00 +16°C° 0 mm 5 mps 742 mmHg 67%
    18:00 +15°C° 0 mm 4 mps 743 mmHg 73%
    19:00 +14°C° 0 mm 4 mps 743 mmHg 72%
    20:00 +13°C° 0 mm 3 mps 744 mmHg 71%
    21:00 +13°C° 0 mm 3 mps 744 mmHg 70%
    22:00 +12°C° 0 mm 3 mps 744 mmHg 73%
    23:00 +11°C° 0 mm 3 mps 745 mmHg 76%

    Day after tomorrow, 16 October, Wednesday

    Time Temperature Precipitation Wind Pressure Humidity
    00:00 +10°C° 0 mm 3 mps 745 mmHg 79%
    01:00 +10°C° 0 mm 3 mps 746 mmHg 82%
    02:00 +9°C° 0 mm 3 mps 746 mmHg 84%
    03:00 +8°C° 0 mm 3 mps 747 mmHg 86%
    04:00 +7°C° 0 mm 3 mps 747 mmHg 86%
    05:00 +7°C° 0 mm 3 mps 747 mmHg 86%
    06:00 +5°C° 0 mm 3 mps 748 mmHg 85%
    07:00 +7°C° 0 mm 3 mps 748 mmHg 78%
    08:00 +7°C° 0 mm 3 mps 749 mmHg 70%
    09:00 +8°C° 0 mm 3 mps 749 mmHg 62%
    10:00 +9°C° 0 mm 3 mps 749 mmHg 57%
    11:00 +9°C° 0 mm 3 mps 750 mmHg 51%
    12:00 +10°C° 0 mm 3 mps 750 mmHg 45%
    13:00 +10°C° 0 mm 3 mps 750 mmHg 44%
    14:00 +11°C° 0 mm 3 mps 750 mmHg 42%
    15:00 +12°C° 0 mm 2 mps 750 mmHg 40%
    16:00 +10°C° 0 mm 2 mps 750 mmHg 44%
    17:00 +9°C° 0 mm 2 mps 750 mmHg 49%
    18:00 +8°C° 0 mm 2 mps 750 mmHg 53%
    19:00 +7°C° 0 mm 2 mps 750 mmHg 55%
    20:00 +7°C° 0 mm 2 mps 751 mmHg 57%
    21:00 +6°C° 0 mm 2 mps 751 mmHg 59%
    22:00 +5°C° 0 mm 3 mps 751 mmHg 62%
    23:00 +4°C° 0 mm 3 mps 751 mmHg 64%

    17 October, Thursday

    Time Temperature Precipitation Wind Pressure Humidity
    00:00 +4°C° 0 mm 3 mps 751 mmHg 67%
    01:00 +4°C° 0 mm 3 mps 751 mmHg 68%
    02:00 +4°C° 0 mm 2 mps 751 mmHg 70%
    03:00 +4°C° 0 mm 2 mps 751 mmHg 71%
    04:00 +4°C° 0 mm 2 mps 751 mmHg 72%
    05:00 +4°C° 0 mm 2 mps 751 mmHg 73%
    06:00 +4°C° 0 mm 2 mps 751 mmHg 74%
    07:00 +4°C° 0 mm 3 mps 751 mmHg 69%
    08:00 +5°C° 0 mm 3 mps 751 mmHg 64%
    09:00 +7°C° 0 mm 3 mps 751 mmHg 60%
    10:00 +8°C° 0 mm 4 mps 750 mmHg 55%
    11:00 +10°C° 0 mm 4 mps 750 mmHg 50%
    12:00 +11°C° 0 mm 4 mps 750 mmHg 45%
    13:00 +11°C° 0 mm 4 mps 749 mmHg 43%
    14:00 +12°C° 0 mm 5 mps 749 mmHg 42%
    15:00 +12°C° 0 mm 5 mps 748 mmHg 40%
    16:00 +11°C° 0 mm 4 mps 748 mmHg 43%
    17:00 +10°C° 0 mm 4 mps 747 mmHg 46%
    18:00 +9°C° 0 mm 3 mps 747 mmHg 50%
    19:00 +7°C° 0 mm 4 mps 746 mmHg 53%
    20:00 +7°C° 0 mm 4 mps 746 mmHg 56%
    21:00 +7°C° 0 mm 4 mps 746 mmHg 58%
    22:00 +7°C° 0 mm 4 mps 746 mmHg 63%
    23:00 +7°C° 0 mm 5 mps 745 mmHg 68%

    18 October, Friday

    Time Temperature Precipitation Wind Pressure Humidity
    00:00 +7°C° 0 mm 5 mps 745 mmHg 73%
    01:00 +7°C° 0 mm 5 mps 744 mmHg 76%
    02:00 +7°C° 0 mm 5 mps 744 mmHg 80%
    03:00 +7°C° 0 mm 4 mps 744 mmHg 83%
    04:00 +7°C° 0 mm 4 mps 744 mmHg 85%
    05:00 +7°C° 0 mm 4 mps 743 mmHg 87%
    06:00 +7°C° 0 mm 4 mps 743 mmHg 89%
    07:00 +8°C° 0 mm 4 mps 743 mmHg 85%
    08:00 +9°C° 0 mm 5 mps 743 mmHg 81%
    09:00 +10°C° 0 mm 5 mps 742 mmHg 77%
    10:00 +11°C° 0.1 mm 4 mps 743 mmHg 76%
    11:00 +12°C° 0.1 mm 3 mps 743 mmHg 75%
    12:00 +13°C° 0.1 mm 1 mps 743 mmHg 74%
    13:00 +13°C° 0 mm 2 mps 743 mmHg 70%
    14:00 +13°C° 0 mm 3 mps 744 mmHg 66%
    15:00 +14°C° 0 mm 4 mps 744 mmHg 63%
    16:00 +12°C° 0 mm 4 mps 744 mmHg 67%
    17:00 +9°C° 0 mm 5 mps 745 mmHg 71%
    18:00 +7°C° 0 mm 5 mps 745 mmHg 76%
    19:00 +6°C° 0 mm 5 mps 746 mmHg 72%
    20:00 +5°C° 0 mm 5 mps 747 mmHg 68%
    21:00 +3°C° 0 mm 5 mps 747 mmHg 64%
    22:00 +3°C° 0 mm 4 mps 748 mmHg 66%
    23:00 +3°C° 0 mm 4 mps 748 mmHg 68%

    19 October, Saturday

    Time Temperature Precipitation Wind Pressure Humidity
    00:00 +1°C° 0 mm 4 mps 749 mmHg 71%
    01:00 0°C° 0 mm 4 mps 749 mmHg 73%
    02:00 +1°C° 0 mm 3 mps 749 mmHg 76%
    03:00 0°C° 0 mm 3 mps 750 mmHg 79%
    04:00 0°C° 0 mm 3 mps 750 mmHg 81%
    05:00 -1°C° 0 mm 3 mps 750 mmHg 82%
    06:00 -1°C° 0 mm 2 mps 751 mmHg 84%
    07:00 0°C° 0 mm 3 mps 751 mmHg 79%
    08:00 0°C° 0 mm 3 mps 751 mmHg 73%
    09:00 +1°C° 0 mm 3 mps 752 mmHg 68%
    10:00 +2°C° 0 mm 3 mps 752 mmHg 62%
    11:00 +3°C° 0 mm 3 mps 752 mmHg 56%
    12:00 +4°C° 0 mm 3 mps 752 mmHg 50%
    13:00 +6°C° 0 mm 2 mps 752 mmHg 48%
    14:00 +6°C° 0 mm 2 mps 752 mmHg 47%
    15:00 +6°C° 0 mm 2 mps 752 mmHg 45%
    16:00 +5°C° 0 mm 2 mps 752 mmHg 50%
    17:00 +4°C° 0 mm 2 mps 752 mmHg 54%
    18:00 +3°C° 0 mm 2 mps 752 mmHg 59%
    19:00 +3°C° 0 mm 2 mps 752 mmHg 60%
    20:00 +2°C° 0 mm 2 mps 752 mmHg 61%
    21:00 +2°C° 0 mm 2 mps 753 mmHg 63%
    22:00 +2°C° 0 mm 2 mps 753 mmHg 65%
    23:00 +1°C° 0 mm 2 mps 753 mmHg 67%
    Show more